Regional Weather Roundup
Issued by NWS

Home | Current Version | Previous Version | Graphics & Text | Print | Product List | Glossary On
Versions: 1 2 3 4 5 6 7 8 9 10 11 12 13 14 15 16 17 18 19 20 21 22 23 24 25 26 27 28 29 30 31 32 33 34 35 36 37 38 39 40 41 42 43 44 45 46 47 48 49 50
000
ASUS43 KBIS 181210
RWRND

NORTH DAKOTA REGIONAL WEATHER ROUNDUP
NATIONAL WEATHER SERVICE BISMARCK ND
600 AM CST WED JAN 18 2017

NOTE: "FAIR" INDICATES FEW OR NO CLOUDS BELOW 12,000 FEET WITH NO
SIGNIFICANT WEATHER AND/OR OBSTRUCTIONS TO VISIBILITY.


NDZ001>003-009>011-017-181300-
NORTHWEST NORTH DAKOTA

CITY           SKY/WX    TMP DP  RH WIND       PRES   REMARKS
WILLISTON      FAIR      25  21  85 SW6       29.68S WCI  18
6HR MIN TEMP:  23; 6HR MAX TEMP:  32;

MINOT          FAIR      37  28  70 SW16      29.65R
$$

NDZ018>021-031>035-040>046-181300-
SOUTHWEST NORTH DAKOTA

CITY           SKY/WX    TMP DP  RH WIND       PRES   REMARKS
BISMARCK       FAIR      18  13  80 NE3       29.75S
6HR MIN TEMP:  16; 6HR MAX TEMP:  28;

DICKINSON      FAIR      30  21  69 W10       29.71S
GARRISON         N/A     27  21  78 SW6       29.69S
6HR MIN TEMP:  23; 6HR MAX TEMP:  31;

HETTINGER ARPT CLOUDY    28  19  69 NW8       29.76S WCI  20
$$

NDZ004>008-012>016-024-026-027-054-181300-
NORTHEAST NORTH DAKOTA

CITY           SKY/WX    TMP DP  RH WIND       PRES   REMARKS
GRAND FORKS    CLOUDY    24  18  77 S13       29.69S WCI  12
GRND FRKS AFB  CLEAR     22  17  81 S16       29.68S WCI   9
DEVILS LAKE    FAIR      23  19  85 SW7       29.68R WCI  15
$$

NDZ022-023-025-028>030-036>039-047>053-181300-
SOUTHEAST NORTH DAKOTA

CITY           SKY/WX    TMP DP  RH WIND       PRES   REMARKS
FARGO          CLEAR     20  16  84 S8        29.77R WCI  10
6HR MIN TEMP:  19; 6HR MAX TEMP:  24;

JAMESTOWN      FAIR      27  20  75 CALM      29.73R
$$




USA.gov is the U.S. government's official web portal to all federal, state and local government web resources and services.